Content
SEND FEEDBACK

Daily
Averages
Monthly
Summary
United States of America

FORT BLISS, TEXAS


Home > North America > United States > Texas
Elevation: 3917 feet     Latitude: 31 48N     Longitude: 106 24W

WEATHER
 
SELECT A DAY
Number of Records: 172,064;   Date Range: 1/1/95 - 8/12/14
 
SHARE

PRINT THIS DATA

[ ← Previous Day ]
WEATHER ALMANAC - SEPTEMBER 18, 2013
[ Next Day → ]
[ °C ]   °F
Weather ElementAverageHighLow
Temperature76.8 °F84.9 °F (2:51 pm)68 °F (5:51 am)
Dewpoint59.2 °F61 °F (12:51 pm)57 °F (5:51 pm)
Humidity55.8 %76 % (5:51 am)38 % (5:51 pm)
Barometer29.77 in29.85 in (8:51 am)29.68 in (5:51 pm)
Wind Speed7 mph11.5 mph (2:51 pm)
Wind Gust19.6 mph (2:51 pm)
Weather ElementAverage
Visibility10 mi
Wind DirectionESE (118.3 °)

Weather ElementTotal
Precipitation---
Cooling Degree Days11.5 (Base 65)
Growing Degree Days26.5 (Base 50)
Averaged from 23 records on September 18, 2013
WEATHER CONDITIONS BREAKOUT
WIND DIRECTION BREAKOUT
WEATHER BY HOUR - SEPTEMBER 18, 2013
[ °C ]   °F
Local TimeTemperatureDewpointHumidityBarometerVisibilityWind DirectionWind SpeedGust SpeedPrecipitationEventsConditions
1:51 AM72.0 °F57.9 °F61 %29.83 in10.0 miSE (130°)8.1 mphPartly Cloudy
2:51 AM71.1 °F57.9 °F63 %29.81 in10.0 miSE (140°)8.1 mphPartly Cloudy
3:51 AM70.0 °F59.0 °F68 %29.80 in10.0 miSE (140°)4.6 mphPartly Cloudy
4:51 AM69.1 °F60.1 °F73 %29.80 in10.0 miCalmPartly Cloudy
5:51 AM68.0 °F60.1 °F76 %29.81 in10.0 miCalmPartly Cloudy
6:51 AM69.1 °F60.1 °F73 %29.83 in10.0 miCalmScattered Clouds
7:51 AM70.0 °F60.1 °F71 %29.84 in10.0 miCalmScattered Clouds
8:51 AM72.0 °F60.1 °F66 %29.85 in10.0 miSSE (150°)8.1 mphScattered Clouds
9:51 AM73.9 °F60.1 °F62 %29.85 in10.0 miESE (120°)6.9 mphScattered Clouds
10:51 AM75.9 °F60.1 °F58 %29.84 in10.0 miSSE (150°)5.8 mphPartly Cloudy
11:51 AM79.0 °F60.1 °F52 %29.81 in10.0 miSE (140°)10.4 mphPartly Cloudy
12:51 PM81.0 °F61.0 °F50 %29.79 in10.0 miSouth (170°)10.4 mphPartly Cloudy
1:51 PM82.0 °F60.1 °F47 %29.76 in10.0 miSSE (150°)10.4 mphPartly Cloudy
2:51 PM84.9 °F60.1 °F43 %29.73 in10.0 miSSE (160°)11.5 mph19.6 mphPartly Cloudy
3:51 PM84.9 °F60.1 °F43 %29.70 in10.0 miVariable6.9 mphScattered Clouds
4:51 PM84.9 °F57.9 °F40 %29.69 in10.0 miSouth (170°)8.1 mphScattered Clouds
5:51 PM84.9 °F57.0 °F38 %29.68 in10.0 miSouth (190°)8.1 mphPartly Cloudy
6:51 PM82.9 °F57.0 °F41 %29.68 in10.0 miSSE (160°)9.2 mphPartly Cloudy
7:51 PM81.0 °F57.0 °F44 %29.70 in10.0 miSSE (150°)6.9 mphPartly Cloudy
8:51 PM81.0 °F57.0 °F44 %29.72 in10.0 miSE (140°)11.5 mphPartly Cloudy
9:51 PM78.1 °F59.0 °F52 %29.74 in10.0 miSSE (150°)9.2 mphScattered Clouds
10:51 PM75.9 °F60.1 °F58 %29.74 in10.0 miSSE (150°)8.1 mphPartly Cloudy
11:51 PM75.0 °F60.1 °F60 %29.73 in10.0 miSSE (160°)8.1 mphPartly Cloudy
Hourly data recorded from KELP, located miles away from Fort Bliss, Texas







STORIES FROM OUR PARTNERS